When you browse on this site, cookies collect data to enhance your experience and personalize the content and advertising you see.
Visit our Privacy Policy to learn more. By continuing to use the site, you agree to this use of cookies and data.
  • In Hungary
  • List of Countries
  • For 7 days
  • Water Temperature
  • Weather Map
  • News
  • Weather Widgets
  • user-avatar
    Login

    Hourly Weather Eureka

    Today, 18 November, Monday

    Time Temperature Precipitation Wind Pressure Humidity
    00:00 +15°C° 0 mm 2 mps 762 mmHg 76%
    01:00 +15°C° 0 mm 1 mps 761 mmHg 75%
    02:00 +15°C° 0 mm 1 mps 761 mmHg 76%
    03:00 +14°C° 0 mm 1 mps 761 mmHg 77%
    04:00 +14°C° 0 mm 1 mps 761 mmHg 78%
    05:00 +14°C° 0 mm 1 mps 761 mmHg 77%
    06:00 +14°C° 0 mm 1 mps 761 mmHg 76%
    07:00 +14°C° 0 mm 1 mps 761 mmHg 76%
    08:00 +18°C° 0 mm 1 mps 761 mmHg 67%
    09:00 +20°C° 0 mm 1 mps 761 mmHg 59%
    10:00 +23°C° 0 mm 1 mps 761 mmHg 50%
    11:00 +23°C° 0 mm 2 mps 760 mmHg 50%
    12:00 +23°C° 0 mm 2 mps 760 mmHg 51%
    13:00 +24°C° 0 mm 3 mps 759 mmHg 51%
    14:00 +21°C° 0 mm 2 mps 759 mmHg 58%
    15:00 +21°C° 0 mm 1 mps 759 mmHg 64%
    16:00 +19°C° 0 mm 1 mps 758 mmHg 71%
    17:00 +18°C° 0 mm 1 mps 758 mmHg 76%
    18:00 +16°C° 0 mm 1 mps 758 mmHg 80%
    19:00 +15°C° 0 mm 1 mps 758 mmHg 84%
    20:00 +15°C° 0.1 mm 1 mps 758 mmHg 86%
    21:00 +15°C° 0.1 mm 2 mps 758 mmHg 89%
    22:00 +16°C° 0.1 mm 2 mps 758 mmHg 92%
    23:00 +15°C° 0.2 mm 2 mps 758 mmHg 94%

    Tomorrow, 19 November, Tuesday

    Time Temperature Precipitation Wind Pressure Humidity
    00:00 +15°C° 0.2 mm 2 mps 758 mmHg 95%
    01:00 +14°C° 0.2 mm 2 mps 757 mmHg 97%
    02:00 +13°C° 0.1 mm 2 mps 757 mmHg 97%
    03:00 +12°C° 0.1 mm 2 mps 757 mmHg 97%
    04:00 +11°C° 0.1 mm 1 mps 757 mmHg 97%
    05:00 +11°C° 0.1 mm 1 mps 757 mmHg 96%
    06:00 +11°C° 0.1 mm 1 mps 757 mmHg 96%
    07:00 +11°C° 0.1 mm 1 mps 757 mmHg 95%
    08:00 +12°C° 0 mm 1 mps 757 mmHg 89%
    09:00 +13°C° 0 mm 2 mps 757 mmHg 84%
    10:00 +15°C° 0 mm 2 mps 757 mmHg 78%
    11:00 +14°C° 0 mm 3 mps 756 mmHg 71%
    12:00 +15°C° 0 mm 4 mps 756 mmHg 64%
    13:00 +16°C° 0 mm 5 mps 755 mmHg 57%
    14:00 +15°C° 0 mm 6 mps 755 mmHg 64%
    15:00 +14°C° 0 mm 7 mps 755 mmHg 71%
    16:00 +12°C° 0 mm 8 mps 755 mmHg 77%
    17:00 +11°C° 0 mm 9 mps 755 mmHg 83%
    18:00 +10°C° 0 mm 9 mps 755 mmHg 88%
    19:00 +8°C° 0 mm 9 mps 756 mmHg 94%
    20:00 +7°C° 0 mm 8 mps 756 mmHg 94%
    21:00 +7°C° 0 mm 8 mps 756 mmHg 94%
    22:00 +6°C° 0 mm 7 mps 757 mmHg 94%
    23:00 +6°C° 0 mm 7 mps 756 mmHg 92%

    Day after tomorrow, 20 November, Wednesday

    Time Temperature Precipitation Wind Pressure Humidity
    00:00 +6°C° 0 mm 7 mps 756 mmHg 90%
    01:00 +5°C° 0 mm 7 mps 756 mmHg 89%
    02:00 +5°C° 0 mm 7 mps 756 mmHg 89%
    03:00 +5°C° 0 mm 6 mps 756 mmHg 89%
    04:00 +4°C° 0 mm 6 mps 756 mmHg 89%
    05:00 +5°C° 0 mm 5 mps 756 mmHg 88%
    06:00 +5°C° 0 mm 4 mps 756 mmHg 87%
    07:00 +5°C° 0 mm 3 mps 756 mmHg 86%
    08:00 +8°C° 0 mm 3 mps 756 mmHg 73%
    09:00 +11°C° 0 mm 3 mps 756 mmHg 61%
    10:00 +14°C° 0 mm 4 mps 756 mmHg 48%
    11:00 +15°C° 0 mm 4 mps 755 mmHg 44%
    12:00 +17°C° 0 mm 5 mps 755 mmHg 40%
    13:00 +19°C° 0 mm 6 mps 754 mmHg 35%
    14:00 +17°C° 0 mm 6 mps 754 mmHg 40%
    15:00 +16°C° 0 mm 6 mps 754 mmHg 45%
    16:00 +15°C° 0 mm 6 mps 753 mmHg 49%
    17:00 +13°C° 0 mm 6 mps 754 mmHg 52%
    18:00 +10°C° 0 mm 5 mps 754 mmHg 55%
    19:00 +8°C° 0 mm 5 mps 754 mmHg 58%
    20:00 +8°C° 0 mm 4 mps 755 mmHg 51%
    21:00 +8°C° 0 mm 4 mps 755 mmHg 43%
    22:00 +8°C° 0 mm 3 mps 756 mmHg 36%
    23:00 +8°C° 0 mm 3 mps 756 mmHg 35%

    21 November, Thursday

    Time Temperature Precipitation Wind Pressure Humidity
    00:00 +7°C° 0 mm 3 mps 756 mmHg 34%
    01:00 +7°C° 0 mm 3 mps 756 mmHg 33%
    02:00 +7°C° 0 mm 3 mps 756 mmHg 33%
    03:00 +7°C° 0 mm 3 mps 756 mmHg 32%
    04:00 +5°C° 0 mm 3 mps 756 mmHg 32%
    05:00 +5°C° 0 mm 3 mps 756 mmHg 32%
    06:00 +5°C° 0 mm 3 mps 756 mmHg 33%
    07:00 +5°C° 0 mm 3 mps 756 mmHg 33%
    08:00 +10°C° 0 mm 2 mps 756 mmHg 29%
    09:00 +14°C° 0 mm 2 mps 756 mmHg 24%
    10:00 +18°C° 0 mm 1 mps 756 mmHg 20%
    11:00 +20°C° 0 mm 1 mps 756 mmHg 18%
    12:00 +22°C° 0 mm 1 mps 756 mmHg 16%
    13:00 +23°C° 0 mm 1 mps 755 mmHg 14%
    14:00 +21°C° 0 mm 1 mps 755 mmHg 21%
    15:00 +19°C° 0 mm 1 mps 756 mmHg 28%
    16:00 +15°C° 0 mm 2 mps 756 mmHg 35%
    17:00 +14°C° 0 mm 2 mps 756 mmHg 37%
    18:00 +12°C° 0 mm 2 mps 757 mmHg 39%
    19:00 +9°C° 0 mm 2 mps 758 mmHg 41%
    20:00 +9°C° 0 mm 2 mps 758 mmHg 39%
    21:00 +9°C° 0 mm 2 mps 759 mmHg 37%
    22:00 +9°C° 0 mm 2 mps 759 mmHg 34%
    23:00 +9°C° 0 mm 2 mps 760 mmHg 34%

    22 November, Friday

    Time Temperature Precipitation Wind Pressure Humidity
    00:00 +9°C° 0 mm 2 mps 760 mmHg 34%
    01:00 +9°C° 0 mm 2 mps 761 mmHg 34%
    02:00 +9°C° 0 mm 2 mps 761 mmHg 34%
    03:00 +9°C° 0 mm 2 mps 761 mmHg 35%
    04:00 +9°C° 0 mm 2 mps 761 mmHg 35%
    05:00 +9°C° 0 mm 2 mps 762 mmHg 36%
    06:00 +9°C° 0 mm 2 mps 762 mmHg 37%
    07:00 +9°C° 0 mm 2 mps 762 mmHg 37%
    08:00 +12°C° 0 mm 1 mps 763 mmHg 34%
    09:00 +15°C° 0 mm 1 mps 763 mmHg 30%
    10:00 +18°C° 0 mm 1 mps 763 mmHg 26%
    11:00 +19°C° 0 mm 1 mps 763 mmHg 25%
    12:00 +20°C° 0 mm 1 mps 763 mmHg 25%
    13:00 +20°C° 0 mm 2 mps 763 mmHg 24%
    14:00 +18°C° 0 mm 2 mps 763 mmHg 28%
    15:00 +18°C° 0 mm 1 mps 762 mmHg 31%
    16:00 +15°C° 0 mm 1 mps 762 mmHg 35%
    17:00 +13°C° 0 mm 1 mps 763 mmHg 38%
    18:00 +12°C° 0 mm 2 mps 763 mmHg 41%
    19:00 +9°C° 0 mm 2 mps 764 mmHg 44%
    20:00 +9°C° 0 mm 2 mps 764 mmHg 44%
    21:00 +9°C° 0 mm 2 mps 765 mmHg 45%
    22:00 +9°C° 0 mm 2 mps 765 mmHg 45%
    23:00 +9°C° 0 mm 2 mps 765 mmHg 46%

    23 November, Saturday

    Time Temperature Precipitation Wind Pressure Humidity
    00:00 +8°C° 0 mm 2 mps 765 mmHg 47%
    01:00 +8°C° 0 mm 2 mps 765 mmHg 48%
    02:00 +8°C° 0 mm 2 mps 765 mmHg 49%
    03:00 +8°C° 0 mm 2 mps 765 mmHg 50%
    04:00 +8°C° 0 mm 2 mps 764 mmHg 51%
    05:00 +9°C° 0 mm 2 mps 765 mmHg 51%
    06:00 +9°C° 0 mm 2 mps 765 mmHg 51%
    07:00 +10°C° 0 mm 2 mps 765 mmHg 51%
    08:00 +13°C° 0 mm 2 mps 765 mmHg 47%
    09:00 +16°C° 0 mm 1 mps 764 mmHg 42%
    10:00 +20°C° 0 mm 1 mps 764 mmHg 38%
    11:00 +19°C° 0 mm 2 mps 764 mmHg 38%
    12:00 +19°C° 0 mm 2 mps 763 mmHg 38%
    13:00 +19°C° 0 mm 3 mps 763 mmHg 38%
    14:00 +18°C° 0 mm 3 mps 763 mmHg 41%
    15:00 +17°C° 0 mm 3 mps 762 mmHg 44%
    16:00 +16°C° 0 mm 3 mps 762 mmHg 47%
    17:00 +13°C° 0 mm 3 mps 763 mmHg 51%
    18:00 +12°C° 0 mm 2 mps 763 mmHg 56%
    19:00 +10°C° 0 mm 2 mps 763 mmHg 61%
    20:00 +9°C° 0 mm 2 mps 763 mmHg 63%
    21:00 +10°C° 0 mm 1 mps 764 mmHg 65%
    22:00 +9°C° 0 mm 1 mps 764 mmHg 67%
    23:00 +9°C° 0 mm 1 mps 764 mmHg 69%
    Show more